BEIJING 1 1 28890U 05043A 26145.58897209 .00000218 00000+0 51508-4 0 9998 2 28890 98.2878 278.6800 0014578 357.7927 2.3208 14.63516347 97345 HUANJING 1A (HJ-1A) 1 33320U 08041A 26145.64507469 .00000867 00000+0 11031-3 0 9992 2 33320 97.6677 132.3577 0018034 208.6454 151.3772 14.83925504955060 HUANJING 1B (HJ-1B) 1 33321U 08041B 26145.60405291 .00001190 00000+0 15032-3 0 9994 2 33321 97.6516 135.5578 0034698 257.3684 102.3650 14.83273198955065 YAOGAN-4 1 33446U 08061A 26145.36424665 .00000817 00000+0 10667-3 0 9997 2 33446 97.9304 79.0446 0015138 140.3657 219.8666 14.83149241942288 DEIMOS-1 1 35681U 09041A 26145.59978882 .00000449 00000+0 73456-4 0 9996 2 35681 97.7382 303.8102 0000209 94.9013 265.2221 14.75209091903555 UK-DMC 2 1 35683U 09041C 26145.65130118 .00000422 00000+0 68479-4 0 9997 2 35683 97.8802 281.1735 0001484 76.6114 283.5261 14.75984070903240 DMC3-FM1 1 40715U 15032A 26145.57620130 .00000397 00000+0 51650-4 0 9999 2 40715 97.6492 11.6344 0006730 119.1303 241.0587 14.85706902586557 DMC3-FM2 1 40716U 15032B 26145.59833286 .00000872 00000+0 10634-3 0 9994 2 40716 97.6548 13.2140 0007222 123.9579 236.2324 14.85714687586551 DMC3-FM3 1 40717U 15032C 26145.62150438 -.00000062 00000+0 -12178-5 0 9990 2 40717 97.6600 14.9751 0006373 122.3526 237.8308 14.85702068586568